Time,TemperatureF,DewpointF,PressureIn,WindDirection,WindDirectionDegrees,WindSpeedMPH,WindSpeedGustMPH,Humidity,HourlyPrecipIn,Conditions,Clouds,dailyrainin,SoftwareType,DateUTC
2014-02-07 00:02:00,3.2,-4.7,30.54,WSW,242,0.0,0.0,69,0.00,,,0.00,Wunderground v.1.15,2014-02-07 06:02:00,
2014-02-07 00:07:00,3.4,-4.5,30.54,WSW,242,0.0,0.0,69,0.00,,,0.00,Wunderground v.1.15,2014-02-07 06:07:00,
2014-02-07 00:13:00,3.4,-4.8,30.54,WSW,242,0.0,0.0,68,0.00,,,0.00,Wunderground v.1.15,2014-02-07 06:13:00,
2014-02-07 00:19:00,3.4,-4.8,30.53,WSW,242,0.0,0.0,68,0.00,,,0.00,Wunderground v.1.15,2014-02-07 06:19:00,
2014-02-07 00:24:00,3.2,-5.0,30.53,WSW,242,0.0,0.0,68,0.00,,,0.00,Wunderground v.1.15,2014-02-07 06:24:00,
2014-02-07 00:30:00,3.0,-5.2,30.52,WSW,242,0.0,0.0,68,0.00,,,0.00,Wunderground v.1.15,2014-02-07 06:30:00,
2014-02-07 00:35:00,2.8,-5.4,30.52,WSW,242,0.0,0.0,68,0.00,,,0.00,Wunderground v.1.15,2014-02-07 06:35:00,
2014-02-07 00:41:00,2.6,-5.3,30.52,WSW,242,0.0,0.0,69,0.00,,,0.00,Wunderground v.1.15,2014-02-07 06:41:00,
2014-02-07 00:46:00,2.6,-5.3,30.52,WSW,242,0.0,0.0,69,0.00,,,0.00,Wunderground v.1.15,2014-02-07 06:46:00,
2014-02-07 00:51:00,2.4,-5.5,30.52,WSW,242,0.0,0.0,69,0.00,,,0.00,Wunderground v.1.15,2014-02-07 06:51:00,
2014-02-07 00:56:00,2.2,-5.6,30.52,WSW,242,0.0,0.0,69,0.00,,,0.00,Wunderground v.1.15,2014-02-07 06:56:00,
2014-02-07 01:01:00,2.2,-5.6,30.51,WSW,242,0.0,0.0,69,0.00,,,0.00,Wunderground v.1.15,2014-02-07 07:01:00,
2014-02-07 01:07:00,2.0,-6.1,30.51,WSW,242,0.0,0.0,68,0.00,,,0.00,Wunderground v.1.15,2014-02-07 07:07:00,
2014-02-07 01:12:00,1.8,-6.0,30.51,WSW,242,0.0,0.0,69,0.00,,,0.00,Wunderground v.1.15,2014-02-07 07:12:00,
2014-02-07 01:17:00,1.7,-6.1,30.51,WSW,242,0.0,0.0,69,0.00,,,0.00,Wunderground v.1.15,2014-02-07 07:17:00,
2014-02-07 01:22:00,1.5,-6.6,30.51,WSW,242,0.0,0.0,68,0.00,,,0.00,Wunderground v.1.15,2014-02-07 07:22:00,
2014-02-07 01:27:00,1.1,-7.0,30.51,WSW,242,0.0,0.0,68,0.00,,,0.00,Wunderground v.1.15,2014-02-07 07:27:00,
2014-02-07 01:32:00,0.9,-6.9,30.51,WSW,242,0.0,0.0,69,0.00,,,0.00,Wunderground v.1.15,2014-02-07 07:32:00,
2014-02-07 01:37:00,0.5,-7.3,30.51,WSW,242,0.0,0.0,69,0.00,,,0.00,Wunderground v.1.15,2014-02-07 07:37:00,
2014-02-07 01:42:00,0.3,-7.5,30.51,WSW,242,0.0,0.0,69,0.00,,,0.00,Wunderground v.1.15,2014-02-07 07:42:00,
2014-02-07 01:47:00,0.3,-7.5,30.51,WSW,242,0.0,0.0,69,0.00,,,0.00,Wunderground v.1.15,2014-02-07 07:47:00,
2014-02-07 01:52:00,0.1,-7.4,30.51,WSW,242,0.0,0.0,70,0.00,,,0.00,Wunderground v.1.15,2014-02-07 07:52:00,
2014-02-07 01:57:00,0.0,-7.5,30.51,WSW,242,0.0,0.0,70,0.00,,,0.00,Wunderground v.1.15,2014-02-07 07:57:00,
2014-02-07 02:02:00,-0.2,-7.7,30.51,WSW,242,0.0,0.0,70,0.00,,,0.00,Wunderground v.1.15,2014-02-07 08:02:00,
2014-02-07 02:07:00,-0.2,-7.4,30.51,WSW,242,0.0,0.0,71,0.00,,,0.00,Wunderground v.1.15,2014-02-07 08:07:00,
2014-02-07 02:12:00,-0.4,-7.6,30.51,WSW,242,0.0,0.0,71,0.00,,,0.00,Wunderground v.1.15,2014-02-07 08:12:00,
2014-02-07 02:17:00,-0.6,-7.8,30.52,WSW,242,0.0,0.0,71,0.00,,,0.00,Wunderground v.1.15,2014-02-07 08:17:00,
2014-02-07 02:22:00,-0.6,-7.5,30.52,WSW,242,0.0,0.0,72,0.00,,,0.00,Wunderground v.1.15,2014-02-07 08:22:00,
2014-02-07 02:27:00,-0.6,-7.8,30.52,WSW,242,0.0,0.0,71,0.00,,,0.00,Wunderground v.1.15,2014-02-07 08:27:00,
2014-02-07 02:33:00,-0.6,-7.5,30.52,WSW,242,0.0,0.0,72,0.00,,,0.00,Wunderground v.1.15,2014-02-07 08:33:00,
2014-02-07 02:39:00,-0.6,-7.5,30.52,WSW,242,0.0,0.0,72,0.00,,,0.00,Wunderground v.1.15,2014-02-07 08:39:00,
2014-02-07 02:44:00,-0.4,-7.0,30.52,WSW,242,0.0,0.0,73,0.00,,,0.00,Wunderground v.1.15,2014-02-07 08:44:00,
2014-02-07 02:50:00,-0.2,-6.8,30.52,WSW,242,0.0,0.0,73,0.00,,,0.00,Wunderground v.1.15,2014-02-07 08:50:00,
2014-02-07 02:55:00,-0.2,-6.8,30.52,WSW,242,0.0,0.0,73,0.00,,,0.00,Wunderground v.1.15,2014-02-07 08:55:00,
2014-02-07 03:01:00,-0.2,-6.8,30.51,WSW,242,0.0,0.0,73,0.00,,,0.00,Wunderground v.1.15,2014-02-07 09:01:00,
2014-02-07 03:07:00,-0.2,-6.8,30.51,WSW,242,0.0,0.0,73,0.00,,,0.00,Wunderground v.1.15,2014-02-07 09:07:00,
2014-02-07 03:12:00,0.0,-6.6,30.51,WSW,242,0.0,0.0,73,0.00,,,0.00,Wunderground v.1.15,2014-02-07 09:12:00,
2014-02-07 03:18:00,0.1,-6.2,30.51,WSW,242,0.0,0.0,74,0.00,,,0.00,Wunderground v.1.15,2014-02-07 09:18:00,
2014-02-07 03:23:00,0.3,-6.0,30.51,WSW,242,0.0,0.0,74,0.00,,,0.00,Wunderground v.1.15,2014-02-07 09:23:00,
2014-02-07 03:29:00,0.5,-5.8,30.51,WSW,242,0.0,0.0,74,0.00,,,0.00,Wunderground v.1.15,2014-02-07 09:29:00,
2014-02-07 03:34:00,0.7,-5.6,30.50,WSW,242,0.0,0.0,74,0.00,,,0.00,Wunderground v.1.15,2014-02-07 09:34:00,
2014-02-07 03:40:00,0.9,-5.5,30.50,WSW,242,0.0,0.0,74,0.00,,,0.00,Wunderground v.1.15,2014-02-07 09:40:00,
2014-02-07 03:45:00,1.1,-5.3,30.50,WSW,242,0.0,0.0,74,0.00,,,0.00,Wunderground v.1.15,2014-02-07 09:45:00,
2014-02-07 03:51:00,1.1,-5.3,30.50,WSW,242,0.0,0.0,74,0.00,,,0.00,Wunderground v.1.15,2014-02-07 09:51:00,
2014-02-07 03:57:00,1.5,-4.9,30.50,WSW,242,0.0,0.0,74,0.00,,,0.00,Wunderground v.1.15,2014-02-07 09:57:00,
2014-02-07 04:02:00,1.7,-4.7,30.50,WSW,242,0.0,0.0,74,0.00,,,0.00,Wunderground v.1.15,2014-02-07 10:02:00,
2014-02-07 04:07:00,1.8,-4.6,30.50,WSW,242,0.0,0.0,74,0.00,,,0.00,Wunderground v.1.15,2014-02-07 10:07:00,
2014-02-07 04:12:00,2.0,-4.7,30.50,WSW,242,0.0,0.0,73,0.00,,,0.00,Wunderground v.1.15,2014-02-07 10:12:00,
2014-02-07 04:17:00,2.2,-4.5,30.50,WSW,242,0.0,0.0,73,0.00,,,0.00,Wunderground v.1.15,2014-02-07 10:17:00,
2014-02-07 04:22:00,2.4,-4.3,30.50,WSW,242,0.0,0.0,73,0.00,,,0.00,Wunderground v.1.15,2014-02-07 10:22:00,
2014-02-07 04:27:00,2.4,-4.3,30.50,WSW,242,0.0,0.0,73,0.00,,,0.00,Wunderground v.1.15,2014-02-07 10:27:00,
2014-02-07 04:32:00,2.6,-4.1,30.51,WSW,242,0.0,0.0,73,0.00,,,0.00,Wunderground v.1.15,2014-02-07 10:32:00,
2014-02-07 04:37:00,2.6,-4.1,30.51,WSW,242,0.0,0.0,73,0.00,,,0.00,Wunderground v.1.15,2014-02-07 10:37:00,
2014-02-07 04:42:00,2.8,-3.9,30.51,WSW,242,0.0,0.0,73,0.00,,,0.00,Wunderground v.1.15,2014-02-07 10:42:00,
2014-02-07 04:47:00,3.0,-3.7,30.51,WSW,242,0.0,0.0,73,0.00,,,0.00,Wunderground v.1.15,2014-02-07 10:47:00,
2014-02-07 04:53:00,3.4,-3.3,30.51,WSW,242,0.0,0.0,73,0.00,,,0.00,Wunderground v.1.15,2014-02-07 10:53:00,
2014-02-07 04:59:00,3.5,-3.5,30.51,WSW,242,0.0,0.0,72,0.00,,,0.00,Wunderground v.1.15,2014-02-07 10:59:00,
2014-02-07 05:04:00,3.7,-3.3,30.50,WSW,242,0.0,0.0,72,0.00,,,0.00,Wunderground v.1.15,2014-02-07 11:04:00,
2014-02-07 05:09:00,3.7,-3.3,30.50,WSW,242,0.0,0.0,72,0.00,,,0.00,Wunderground v.1.15,2014-02-07 11:09:00,
2014-02-07 05:14:00,3.9,-3.1,30.50,WSW,242,0.0,0.0,72,0.00,,,0.00,Wunderground v.1.15,2014-02-07 11:14:00,
2014-02-07 05:20:00,3.9,-3.1,30.50,WSW,242,0.0,0.0,72,0.00,,,0.00,Wunderground v.1.15,2014-02-07 11:20:00,
2014-02-07 05:25:00,3.9,-3.1,30.50,WSW,242,0.0,0.0,72,0.00,,,0.00,Wunderground v.1.15,2014-02-07 11:25:00,
2014-02-07 05:31:00,3.9,-3.1,30.49,WSW,242,0.0,0.0,72,0.00,,,0.00,Wunderground v.1.15,2014-02-07 11:31:00,
2014-02-07 05:36:00,3.9,-3.1,30.49,WSW,242,0.0,0.0,72,0.00,,,0.00,Wunderground v.1.15,2014-02-07 11:36:00,
2014-02-07 05:41:00,3.9,-3.1,30.49,WSW,242,0.0,0.0,72,0.00,,,0.00,Wunderground v.1.15,2014-02-07 11:41:00,
2014-02-07 05:47:00,3.9,-3.1,30.49,WSW,242,0.0,0.0,72,0.00,,,0.00,Wunderground v.1.15,2014-02-07 11:47:00,
2014-02-07 05:52:00,3.7,-3.3,30.49,WSW,242,0.0,0.0,72,0.00,,,0.00,Wunderground v.1.15,2014-02-07 11:52:00,
2014-02-07 05:57:00,3.7,-3.3,30.49,WSW,242,0.0,0.0,72,0.00,,,0.00,Wunderground v.1.15,2014-02-07 11:57:00,
2014-02-07 06:02:00,3.7,-3.3,30.48,WSW,242,0.0,0.0,72,0.00,,,0.00,Wunderground v.1.15,2014-02-07 12:02:00,
2014-02-07 06:07:00,3.5,-3.5,30.48,WSW,242,0.0,0.0,72,0.00,,,0.00,Wunderground v.1.15,2014-02-07 12:07:00,
2014-02-07 06:12:00,3.5,-3.2,30.48,WSW,242,0.0,0.0,73,0.00,,,0.00,Wunderground v.1.15,2014-02-07 12:12:00,
2014-02-07 06:17:00,3.7,-3.0,30.49,WSW,242,0.0,1.0,73,0.00,,,0.00,Wunderground v.1.15,2014-02-07 12:17:00,
2014-02-07 06:22:00,3.7,-3.0,30.49,WSW,242,0.0,0.0,73,0.00,,,0.00,Wunderground v.1.15,2014-02-07 12:22:00,
2014-02-07 06:28:00,3.9,-2.8,30.49,WSW,242,0.0,1.0,73,0.00,,,0.00,Wunderground v.1.15,2014-02-07 12:28:00,
2014-02-07 06:33:00,3.9,-2.8,30.49,WSW,242,0.0,0.0,73,0.00,,,0.00,Wunderground v.1.15,2014-02-07 12:33:00,
2014-02-07 06:39:00,3.9,-2.8,30.49,WSW,242,0.0,0.0,73,0.00,,,0.00,Wunderground v.1.15,2014-02-07 12:39:00,
2014-02-07 06:45:00,4.1,-2.6,30.49,WSW,242,0.0,0.0,73,0.00,,,0.00,Wunderground v.1.15,2014-02-07 12:45:00,
2014-02-07 06:51:00,4.3,-2.4,30.49,WSW,242,0.0,0.0,73,0.00,,,0.00,Wunderground v.1.15,2014-02-07 12:51:00,
2014-02-07 06:56:00,4.3,-2.4,30.49,WSW,242,0.0,0.0,73,0.00,,,0.00,Wunderground v.1.15,2014-02-07 12:56:00,
2014-02-07 07:02:00,4.3,-2.4,30.49,WSW,242,0.0,0.0,73,0.00,,,0.00,Wunderground v.1.15,2014-02-07 13:02:00,
2014-02-07 07:07:00,4.3,-2.4,30.49,WSW,242,0.0,0.0,73,0.00,,,0.00,Wunderground v.1.15,2014-02-07 13:07:00,
2014-02-07 07:13:00,4.5,-2.3,30.49,WSW,242,0.0,0.0,73,0.00,,,0.00,Wunderground v.1.15,2014-02-07 13:13:00,
2014-02-07 07:19:00,4.5,-2.3,30.50,WSW,242,0.0,0.0,73,0.00,,,0.00,Wunderground v.1.15,2014-02-07 13:19:00,
2014-02-07 07:24:00,4.7,-2.1,30.50,WSW,242,0.0,0.0,73,0.00,,,0.00,Wunderground v.1.15,2014-02-07 13:24:00,
2014-02-07 07:30:00,4.8,-2.3,30.50,WSW,242,0.0,0.0,72,0.00,,,0.00,Wunderground v.1.15,2014-02-07 13:30:00,
2014-02-07 07:35:00,5.0,-2.4,30.50,WSW,242,0.0,0.0,71,0.00,,,0.00,Wunderground v.1.15,2014-02-07 13:35:00,
2014-02-07 07:41:00,5.2,-2.5,30.50,WSW,242,0.0,0.0,70,0.00,,,0.00,Wunderground v.1.15,2014-02-07 13:41:00,
2014-02-07 07:47:00,5.2,-2.5,30.50,WSW,242,0.0,0.0,70,0.00,,,0.00,Wunderground v.1.15,2014-02-07 13:47:00,
2014-02-07 07:52:00,5.4,-2.3,30.50,WSW,242,0.0,0.0,70,0.00,,,0.00,Wunderground v.1.15,2014-02-07 13:52:00,
2014-02-07 07:57:00,5.4,-2.3,30.50,WSW,242,0.0,1.0,70,0.00,,,0.00,Wunderground v.1.15,2014-02-07 13:57:00,
2014-02-07 08:02:00,5.6,-2.1,30.50,WSW,242,1.0,1.0,70,0.00,,,0.00,Wunderground v.1.15,2014-02-07 14:02:00,
2014-02-07 08:07:00,5.8,-2.2,30.50,WSW,242,1.0,2.0,69,0.00,,,0.00,Wunderground v.1.15,2014-02-07 14:07:00,
2014-02-07 08:12:00,6.0,-2.0,30.50,WSW,242,0.0,0.0,69,0.00,,,0.00,Wunderground v.1.15,2014-02-07 14:12:00,
2014-02-07 08:17:00,6.0,-2.6,30.50,WSW,242,0.0,0.0,67,0.00,,,0.00,Wunderground v.1.15,2014-02-07 14:17:00,
2014-02-07 08:22:00,6.1,-2.5,30.50,WSW,242,0.0,1.0,67,0.00,,,0.00,Wunderground v.1.15,2014-02-07 14:22:00,
2014-02-07 08:27:00,6.1,-2.5,30.50,SSW,198,1.0,3.0,67,0.00,,,0.00,Wunderground v.1.15,2014-02-07 14:27:00,
2014-02-07 08:32:00,6.1,-2.8,30.50,SSW,198,1.0,1.0,66,0.00,,,0.00,Wunderground v.1.15,2014-02-07 14:32:00,
2014-02-07 08:37:00,6.1,-2.8,30.50,SSW,198,1.0,1.0,66,0.00,,,0.00,Wunderground v.1.15,2014-02-07 14:37:00,
2014-02-07 08:42:00,6.3,-3.0,30.50,SSW,198,1.0,1.0,65,0.00,,,0.00,Wunderground v.1.15,2014-02-07 14:42:00,
2014-02-07 08:48:00,6.5,-2.8,30.50,SSW,198,1.0,3.0,65,0.00,,,0.00,Wunderground v.1.15,2014-02-07 14:48:00,
2014-02-07 08:53:00,6.5,-3.1,30.50,SSW,198,1.0,2.0,64,0.00,,,0.00,Wunderground v.1.15,2014-02-07 14:53:00,
2014-02-07 08:59:00,6.7,-3.6,30.50,SSW,198,1.0,2.0,62,0.00,,,0.00,Wunderground v.1.15,2014-02-07 14:59:00,
2014-02-07 09:05:00,7.2,-3.1,30.49,SSW,198,1.0,2.0,62,0.00,,,0.00,Wunderground v.1.15,2014-02-07 15:05:00,
2014-02-07 09:11:00,7.4,-3.3,30.49,SSW,198,1.0,1.0,61,0.00,,,0.00,Wunderground v.1.15,2014-02-07 15:11:00,
2014-02-07 09:17:00,7.7,-3.7,30.49,SSW,198,1.0,4.0,59,0.00,,,0.00,Wunderground v.1.15,2014-02-07 15:17:00,
2014-02-07 09:22:00,7.9,-3.5,30.49,South,171,1.0,3.0,59,0.00,,,0.00,Wunderground v.1.15,2014-02-07 15:22:00,
2014-02-07 09:27:00,8.3,-3.5,30.49,SSE,165,2.0,4.0,58,0.00,,,0.00,Wunderground v.1.15,2014-02-07 15:27:00,
2014-02-07 09:32:00,8.3,-3.8,30.49,SE,139,2.0,4.0,57,0.00,,,0.00,Wunderground v.1.15,2014-02-07 15:32:00,
2014-02-07 09:37:00,8.4,-3.7,30.49,SE,139,2.0,4.0,57,0.00,,,0.00,Wunderground v.1.15,2014-02-07 15:37:00,
2014-02-07 09:42:00,8.8,-3.4,30.49,SE,134,2.0,4.0,57,0.00,,,0.00,Wunderground v.1.15,2014-02-07 15:42:00,
2014-02-07 09:47:00,9.2,-3.7,30.49,SSE,168,4.0,7.0,55,0.00,,,0.00,Wunderground v.1.15,2014-02-07 15:47:00,
2014-02-07 09:53:00,9.5,-3.8,30.49,SSE,162,4.0,5.0,54,0.00,,,0.00,Wunderground v.1.15,2014-02-07 15:53:00,
2014-02-07 09:59:00,9.2,-4.9,30.49,SSE,161,3.0,5.0,52,0.00,,,0.00,Wunderground v.1.15,2014-02-07 15:59:00,
2014-02-07 10:04:00,9.0,-5.1,30.48,SSE,161,2.0,4.0,52,0.00,,,0.00,Wunderground v.1.15,2014-02-07 16:04:00,
2014-02-07 10:09:00,9.3,-4.0,30.48,SSE,167,3.0,7.0,54,0.00,,,0.00,Wunderground v.1.15,2014-02-07 16:09:00,
2014-02-07 10:14:00,9.5,-4.6,30.48,SSE,151,4.0,6.0,52,0.00,,,0.00,Wunderground v.1.15,2014-02-07 16:14:00,
2014-02-07 10:20:00,9.5,-4.2,30.49,South,178,3.0,9.0,53,0.00,,,0.00,Wunderground v.1.15,2014-02-07 16:20:00,
2014-02-07 10:25:00,9.7,-4.8,30.49,South,190,4.0,9.0,51,0.00,,,0.00,Wunderground v.1.15,2014-02-07 16:25:00,
2014-02-07 10:31:00,9.5,-5.0,30.49,South,175,6.0,6.0,51,0.00,,,0.00,Wunderground v.1.15,2014-02-07 16:31:00,
2014-02-07 10:36:00,9.9,-3.8,30.49,SSE,165,5.0,9.0,53,0.00,,,0.00,Wunderground v.1.15,2014-02-07 16:36:00,
2014-02-07 10:42:00,10.4,-3.8,30.49,SE,133,4.0,4.0,52,0.00,,,0.00,Wunderground v.1.15,2014-02-07 16:42:00,
2014-02-07 10:47:00,10.5,-3.7,30.49,SSE,162,2.0,4.0,52,0.00,,,0.00,Wunderground v.1.15,2014-02-07 16:47:00,
2014-02-07 10:52:00,10.5,-3.7,30.49,SE,137,2.0,2.0,52,0.00,,,0.00,Wunderground v.1.15,2014-02-07 16:52:00,
2014-02-07 10:57:00,10.2,-4.0,30.49,South,184,3.0,5.0,52,0.00,,,0.00,Wunderground v.1.15,2014-02-07 16:57:00,
2014-02-07 11:02:00,10.4,-3.0,30.48,South,179,2.0,3.0,54,0.00,,,0.00,Wunderground v.1.15,2014-02-07 17:02:00,
2014-02-07 11:07:00,10.7,-2.7,30.48,South,169,2.0,3.0,54,0.00,,,0.00,Wunderground v.1.15,2014-02-07 17:07:00,
2014-02-07 11:12:00,10.7,-3.5,30.48,South,187,2.0,5.0,52,0.00,,,0.00,Wunderground v.1.15,2014-02-07 17:12:00,
2014-02-07 11:17:00,10.5,-3.3,30.48,South,177,2.0,5.0,53,0.00,,,0.00,Wunderground v.1.15,2014-02-07 17:17:00,
2014-02-07 11:23:00,10.5,-4.5,30.48,SSE,147,4.0,6.0,50,0.00,,,0.00,Wunderground v.1.15,2014-02-07 17:23:00,
2014-02-07 11:29:00,10.7,-3.5,30.48,SE,134,3.0,7.0,52,0.00,,,0.00,Wunderground v.1.15,2014-02-07 17:29:00,
2014-02-07 11:34:00,11.1,-3.1,30.47,SE,144,3.0,5.0,52,0.00,,,0.00,Wunderground v.1.15,2014-02-07 17:34:00,
2014-02-07 11:40:00,11.9,-2.4,30.47,South,175,4.0,4.0,52,0.00,,,0.00,Wunderground v.1.15,2014-02-07 17:40:00,
2014-02-07 11:45:00,11.4,-3.7,30.46,SSE,166,4.0,8.0,50,0.00,,,0.00,Wunderground v.1.15,2014-02-07 17:45:00,
2014-02-07 11:51:00,11.4,-3.3,30.46,SE,143,3.0,4.0,51,0.00,,,0.00,Wunderground v.1.15,2014-02-07 17:51:00,
2014-02-07 11:57:00,11.7,-2.6,30.46,SSE,153,4.0,9.0,52,0.00,,,0.00,Wunderground v.1.15,2014-02-07 17:57:00,
2014-02-07 12:02:00,11.6,-3.1,30.46,SSE,159,4.0,4.0,51,0.00,,,0.00,Wunderground v.1.15,2014-02-07 18:02:00,
2014-02-07 12:07:00,11.7,-3.4,30.46,SSE,168,4.0,4.0,50,0.00,,,0.00,Wunderground v.1.15,2014-02-07 18:07:00,
2014-02-07 12:13:00,11.7,-2.6,30.46,South,176,3.0,4.0,52,0.00,,,0.00,Wunderground v.1.15,2014-02-07 18:13:00,
2014-02-07 12:19:00,12.3,-1.6,30.45,SSE,157,3.0,6.0,53,0.00,,,0.00,Wunderground v.1.15,2014-02-07 18:19:00,
2014-02-07 12:24:00,11.9,-2.4,30.45,SSE,155,3.0,9.0,52,0.00,,,0.00,Wunderground v.1.15,2014-02-07 18:24:00,
2014-02-07 12:30:00,11.9,-2.4,30.44,SSW,192,3.0,4.0,52,0.00,,,0.00,Wunderground v.1.15,2014-02-07 18:30:00,
2014-02-07 12:36:00,11.7,-2.6,30.44,South,169,3.0,4.0,52,0.00,,,0.00,Wunderground v.1.15,2014-02-07 18:36:00,
2014-02-07 12:42:00,12.1,-1.8,30.44,SE,138,3.0,3.0,53,0.00,,,0.00,Wunderground v.1.15,2014-02-07 18:42:00,
2014-02-07 12:47:00,12.1,-1.8,30.43,SSW,193,3.0,9.0,53,0.00,,,0.00,Wunderground v.1.15,2014-02-07 18:47:00,
2014-02-07 12:52:00,12.1,-2.2,30.43,South,178,4.0,5.0,52,0.00,,,0.00,Wunderground v.1.15,2014-02-07 18:52:00,
2014-02-07 12:57:00,12.1,-2.2,30.43,SSW,203,4.0,5.0,52,0.00,,,0.00,Wunderground v.1.15,2014-02-07 18:57:00,
2014-02-07 13:02:00,12.3,-1.6,30.42,SSE,167,4.0,5.0,53,0.00,,,0.00,Wunderground v.1.15,2014-02-07 19:02:00,
2014-02-07 13:08:00,12.4,-1.1,30.42,SSE,165,4.0,6.0,54,0.00,,,0.00,Wunderground v.1.15,2014-02-07 19:08:00,
2014-02-07 13:13:00,13.1,-0.9,30.42,SE,141,4.0,4.0,53,0.00,,,0.00,Wunderground v.1.15,2014-02-07 19:13:00,
2014-02-07 13:19:00,12.9,-1.0,30.41,SE,138,2.0,4.0,53,0.00,,,0.00,Wunderground v.1.15,2014-02-07 19:19:00,
2014-02-07 13:25:00,12.8,-0.7,30.41,South,173,2.0,6.0,54,0.00,,,0.00,Wunderground v.1.15,2014-02-07 19:25:00,
2014-02-07 13:30:00,12.9,-0.6,30.41,South,178,3.0,5.0,54,0.00,,,0.00,Wunderground v.1.15,2014-02-07 19:30:00,
2014-02-07 13:36:00,12.6,-1.7,30.41,South,188,4.0,5.0,52,0.00,,,0.00,Wunderground v.1.15,2014-02-07 19:36:00,
2014-02-07 13:42:00,12.6,-1.3,30.41,SSE,154,5.0,5.0,53,0.00,,,0.00,Wunderground v.1.15,2014-02-07 19:42:00,
2014-02-07 13:47:00,12.8,-1.5,30.40,SW,227,5.0,9.0,52,0.00,,,0.00,Wunderground v.1.15,2014-02-07 19:47:00,
2014-02-07 13:52:00,12.8,-1.1,30.40,SSW,207,5.0,5.0,53,0.00,,,0.00,Wunderground v.1.15,2014-02-07 19:52:00,
2014-02-07 13:57:00,12.8,-1.1,30.40,South,184,5.0,6.0,53,0.00,,,0.00,Wunderground v.1.15,2014-02-07 19:57:00,
2014-02-07 14:02:00,12.8,-1.5,30.39,SW,228,5.0,7.0,52,0.00,,,0.00,Wunderground v.1.15,2014-02-07 20:02:00,
2014-02-07 14:08:00,12.6,-2.1,30.39,SSW,198,6.0,7.0,51,0.00,,,0.00,Wunderground v.1.15,2014-02-07 20:08:00,
2014-02-07 14:13:00,12.6,-1.7,30.39,South,187,5.0,6.0,52,0.00,,,0.00,Wunderground v.1.15,2014-02-07 20:13:00,
2014-02-07 14:19:00,12.8,-0.7,30.38,South,186,4.0,11.0,54,0.00,,,0.00,Wunderground v.1.15,2014-02-07 20:19:00,
2014-02-07 14:24:00,12.8,-1.1,30.38,South,184,4.0,10.0,53,0.00,,,0.00,Wunderground v.1.15,2014-02-07 20:24:00,
2014-02-07 14:30:00,12.8,-1.1,30.37,SSE,158,4.0,5.0,53,0.00,,,0.00,Wunderground v.1.15,2014-02-07 20:30:00,
2014-02-07 14:35:00,12.9,-1.0,30.37,SSE,160,4.0,5.0,53,0.00,,,0.00,Wunderground v.1.15,2014-02-07 20:35:00,
2014-02-07 14:41:00,13.1,-0.5,30.37,SSE,167,4.0,4.0,54,0.00,,,0.00,Wunderground v.1.15,2014-02-07 20:41:00,
2014-02-07 14:46:00,13.3,-0.3,30.37,SSE,156,4.0,5.0,54,0.00,,,0.00,Wunderground v.1.15,2014-02-07 20:46:00,
2014-02-07 14:51:00,13.3,-0.7,30.37,SSE,168,3.0,3.0,53,0.00,,,0.00,Wunderground v.1.15,2014-02-07 20:51:00,
2014-02-07 14:56:00,13.3,-0.3,30.37,SSW,199,3.0,8.0,54,0.00,,,0.00,Wunderground v.1.15,2014-02-07 20:56:00,
2014-02-07 15:01:00,13.5,-0.1,30.36,SSE,162,3.0,3.0,54,0.00,,,0.00,Wunderground v.1.15,2014-02-07 21:01:00,
2014-02-07 15:06:00,13.6,0.0,30.36,SSE,157,3.0,6.0,54,0.00,,,0.00,Wunderground v.1.15,2014-02-07 21:06:00,
2014-02-07 15:12:00,13.5,-0.5,30.36,South,173,3.0,3.0,53,0.00,,,0.00,Wunderground v.1.15,2014-02-07 21:12:00,
2014-02-07 15:18:00,13.6,0.0,30.34,SSE,157,2.0,4.0,54,0.00,,,0.00,Wunderground v.1.15,2014-02-07 21:18:00,
2014-02-07 15:23:00,14.0,0.4,30.34,South,177,3.0,5.0,54,0.00,,,0.00,Wunderground v.1.15,2014-02-07 21:23:00,
2014-02-07 15:29:00,13.8,-0.2,30.34,South,175,3.0,5.0,53,0.00,,,0.00,Wunderground v.1.15,2014-02-07 21:29:00,
2014-02-07 15:34:00,14.0,0.4,30.34,SE,141,2.0,3.0,54,0.00,,,0.00,Wunderground v.1.15,2014-02-07 21:34:00,
2014-02-07 15:40:00,14.0,0.4,30.34,SSE,165,2.0,3.0,54,0.00,,,0.00,Wunderground v.1.15,2014-02-07 21:40:00,
2014-02-07 15:46:00,13.8,0.2,30.34,SSE,165,3.0,3.0,54,0.00,,,0.00,Wunderground v.1.15,2014-02-07 21:46:00,
2014-02-07 15:51:00,13.8,0.2,30.34,South,174,3.0,3.0,54,0.00,,,0.00,Wunderground v.1.15,2014-02-07 21:51:00,
2014-02-07 15:57:00,13.8,0.2,30.34,SSE,163,3.0,5.0,54,0.00,,,0.00,Wunderground v.1.15,2014-02-07 21:57:00,
2014-02-07 16:02:00,13.6,0.0,30.34,SSE,153,3.0,6.0,54,0.00,,,0.00,Wunderground v.1.15,2014-02-07 22:02:00,
2014-02-07 16:07:00,13.6,0.4,30.34,SSE,162,3.0,6.0,55,0.00,,,0.00,Wunderground v.1.15,2014-02-07 22:07:00,
2014-02-07 16:12:00,13.6,0.0,30.34,SSE,151,3.0,4.0,54,0.00,,,0.00,Wunderground v.1.15,2014-02-07 22:12:00,
2014-02-07 16:17:00,13.6,0.0,30.33,SSE,151,2.0,4.0,54,0.00,,,0.00,Wunderground v.1.15,2014-02-07 22:17:00,
2014-02-07 16:22:00,13.8,0.2,30.33,SE,142,2.0,5.0,54,0.00,,,0.00,Wunderground v.1.15,2014-02-07 22:22:00,
2014-02-07 16:28:00,13.8,0.2,30.33,SSE,149,3.0,5.0,54,0.00,,,0.00,Wunderground v.1.15,2014-02-07 22:28:00,
2014-02-07 16:33:00,13.6,0.0,30.33,SSE,159,3.0,3.0,54,0.00,,,0.00,Wunderground v.1.15,2014-02-07 22:33:00,
2014-02-07 16:39:00,13.8,0.2,30.33,SSE,153,3.0,5.0,54,0.00,,,0.00,Wunderground v.1.15,2014-02-07 22:39:00,
2014-02-07 16:44:00,13.8,0.2,30.33,SE,146,3.0,6.0,54,0.00,,,0.00,Wunderground v.1.15,2014-02-07 22:44:00,
2014-02-07 16:50:00,13.8,0.2,30.33,SSE,153,3.0,3.0,54,0.00,,,0.00,Wunderground v.1.15,2014-02-07 22:50:00,
2014-02-07 16:56:00,13.8,0.2,30.33,SSE,148,3.0,3.0,54,0.00,,,0.00,Wunderground v.1.15,2014-02-07 22:56:00,
2014-02-07 17:02:00,14.0,0.4,30.33,SSE,162,2.0,3.0,54,0.00,,,0.00,Wunderground v.1.15,2014-02-07 23:02:00,
2014-02-07 17:07:00,14.0,0.8,30.33,SE,143,2.0,4.0,55,0.00,,,0.00,Wunderground v.1.15,2014-02-07 23:07:00,
2014-02-07 17:13:00,14.0,0.4,30.33,SSE,165,3.0,4.0,54,0.00,,,0.00,Wunderground v.1.15,2014-02-07 23:13:00,
2014-02-07 17:19:00,14.0,0.4,30.32,SSE,165,2.0,4.0,54,0.00,,,0.00,Wunderground v.1.15,2014-02-07 23:19:00,
2014-02-07 17:24:00,14.0,0.8,30.32,SSE,165,1.0,2.0,55,0.00,,,0.00,Wunderground v.1.15,2014-02-07 23:24:00,
2014-02-07 17:30:00,14.0,0.8,30.32,SSE,165,0.0,0.0,55,0.00,,,0.00,Wunderground v.1.15,2014-02-07 23:30:00,
2014-02-07 17:35:00,14.0,0.4,30.32,SSE,165,1.0,3.0,54,0.00,,,0.00,Wunderground v.1.15,2014-02-07 23:35:00,
2014-02-07 17:41:00,14.0,0.4,30.32,SSE,165,2.0,2.0,54,0.00,,,0.00,Wunderground v.1.15,2014-02-07 23:41:00,
2014-02-07 17:47:00,14.0,0.4,30.32,SSE,165,2.0,4.0,54,0.00,,,0.00,Wunderground v.1.15,2014-02-07 23:47:00,
2014-02-07 17:52:00,14.0,0.8,30.32,SSE,165,3.0,4.0,55,0.00,,,0.00,Wunderground v.1.15,2014-02-07 23:52:00,
2014-02-07 17:57:00,14.0,0.8,30.32,SSE,165,2.0,4.0,55,0.00,,,0.00,Wunderground v.1.15,2014-02-07 23:57:00,
2014-02-07 18:02:00,14.0,0.4,30.32,SSE,165,1.0,2.0,54,0.00,,,0.00,Wunderground v.1.15,2014-02-08 00:02:00,
2014-02-07 18:07:00,14.1,0.9,30.32,SSE,153,1.0,2.0,55,0.00,,,0.00,Wunderground v.1.15,2014-02-08 00:07:00,
2014-02-07 18:12:00,14.0,0.8,30.32,SSE,148,1.0,2.0,55,0.00,,,0.00,Wunderground v.1.15,2014-02-08 00:12:00,
2014-02-07 18:17:00,14.1,1.3,30.33,SSE,148,1.0,2.0,56,0.00,,,0.00,Wunderground v.1.15,2014-02-08 00:17:00,
2014-02-07 18:22:00,14.1,1.6,30.33,SSE,148,1.0,1.0,57,0.00,,,0.00,Wunderground v.1.15,2014-02-08 00:22:00,
2014-02-07 18:27:00,14.1,1.6,30.33,SSE,148,0.0,1.0,57,0.00,,,0.00,Wunderground v.1.15,2014-02-08 00:27:00,
2014-02-07 18:32:00,14.1,1.3,30.33,SSE,148,1.0,2.0,56,0.00,,,0.00,Wunderground v.1.15,2014-02-08 00:32:00,
2014-02-07 18:38:00,14.1,1.6,30.33,SSE,148,1.0,2.0,57,0.00,,,0.00,Wunderground v.1.15,2014-02-08 00:38:00,
2014-02-07 18:43:00,14.1,2.0,30.33,SSE,148,0.0,1.0,58,0.00,,,0.00,Wunderground v.1.15,2014-02-08 00:43:00,
2014-02-07 18:49:00,14.1,1.6,30.33,SSE,148,0.0,1.0,57,0.00,,,0.00,Wunderground v.1.15,2014-02-08 00:49:00,
2014-02-07 18:54:00,14.1,1.3,30.33,SSE,148,1.0,3.0,56,0.00,,,0.00,Wunderground v.1.15,2014-02-08 00:54:00,
2014-02-07 19:00:00,14.1,2.0,30.33,SSE,148,1.0,1.0,58,0.00,,,0.00,Wunderground v.1.15,2014-02-08 01:00:00,
2014-02-07 19:05:00,14.1,2.0,30.33,SSE,148,1.0,2.0,58,0.00,,,0.00,Wunderground v.1.15,2014-02-08 01:05:00,
2014-02-07 19:11:00,14.1,1.6,30.33,SSE,148,1.0,1.0,57,0.00,,,0.00,Wunderground v.1.15,2014-02-08 01:11:00,
2014-02-07 19:16:00,14.1,2.0,30.33,SSE,148,1.0,4.0,58,0.00,,,0.00,Wunderground v.1.15,2014-02-08 01:16:00,
2014-02-07 19:21:00,14.3,2.2,30.33,SSE,165,1.0,4.0,58,0.00,,,0.00,Wunderground v.1.15,2014-02-08 01:21:00,
2014-02-07 19:26:00,14.3,2.2,30.33,SSE,159,2.0,4.0,58,0.00,,,0.00,Wunderground v.1.15,2014-02-08 01:26:00,
2014-02-07 19:31:00,14.3,2.2,30.32,SSE,167,2.0,2.0,58,0.00,,,0.00,Wunderground v.1.15,2014-02-08 01:31:00,
2014-02-07 19:36:00,14.3,2.6,30.32,SSE,167,2.0,3.0,59,0.00,,,0.00,Wunderground v.1.15,2014-02-08 01:36:00,
2014-02-07 19:41:00,14.3,2.6,30.32,SSE,166,1.0,2.0,59,0.00,,,0.00,Wunderground v.1.15,2014-02-08 01:41:00,
2014-02-07 19:46:00,14.3,2.2,30.32,SSE,166,1.0,3.0,58,0.00,,,0.00,Wunderground v.1.15,2014-02-08 01:46:00,
2014-02-07 19:51:00,14.3,2.6,30.32,SSE,166,1.0,2.0,59,0.00,,,0.00,Wunderground v.1.15,2014-02-08 01:51:00,
2014-02-07 19:56:00,14.3,2.6,30.32,SSE,166,2.0,2.0,59,0.00,,,0.00,Wunderground v.1.15,2014-02-08 01:56:00,
2014-02-07 20:01:00,14.3,2.6,30.32,SSE,166,1.0,1.0,59,0.00,,,0.00,Wunderground v.1.15,2014-02-08 02:01:00,
2014-02-07 20:07:00,14.3,2.6,30.32,SSE,166,1.0,2.0,59,0.00,,,0.00,Wunderground v.1.15,2014-02-08 02:07:00,
2014-02-07 20:12:00,14.3,2.9,30.32,SSE,167,2.0,4.0,60,0.00,,,0.00,Wunderground v.1.15,2014-02-08 02:12:00,
2014-02-07 20:17:00,14.3,2.9,30.33,SSE,167,2.0,4.0,60,0.00,,,0.00,Wunderground v.1.15,2014-02-08 02:17:00,
2014-02-07 20:22:00,14.3,2.9,30.33,SSE,167,1.0,2.0,60,0.00,,,0.00,Wunderground v.1.15,2014-02-08 02:22:00,
2014-02-07 20:27:00,14.4,3.0,30.33,SSE,167,1.0,3.0,60,0.00,,,0.00,Wunderground v.1.15,2014-02-08 02:27:00,
2014-02-07 20:32:00,14.4,3.0,30.33,SSE,167,0.0,3.0,60,0.00,,,0.00,Wunderground v.1.15,2014-02-08 02:32:00,
2014-02-07 20:37:00,14.4,3.0,30.33,SSE,167,1.0,3.0,60,0.00,,,0.00,Wunderground v.1.15,2014-02-08 02:37:00,
2014-02-07 20:42:00,14.4,3.4,30.33,SSE,167,1.0,2.0,61,0.00,,,0.00,Wunderground v.1.15,2014-02-08 02:42:00,
2014-02-07 20:47:00,14.4,3.4,30.32,SSE,149,1.0,2.0,61,0.00,,,0.00,Wunderground v.1.15,2014-02-08 02:47:00,
2014-02-07 20:52:00,14.4,3.7,30.32,SSE,155,1.0,2.0,62,0.00,,,0.00,Wunderground v.1.15,2014-02-08 02:52:00,
2014-02-07 20:57:00,14.4,3.7,30.32,SE,144,1.0,3.0,62,0.00,,,0.00,Wunderground v.1.15,2014-02-08 02:57:00,
2014-02-07 21:02:00,14.4,3.7,30.32,SE,144,1.0,3.0,62,0.00,,,0.00,Wunderground v.1.15,2014-02-08 03:02:00,
2014-02-07 21:08:00,14.4,4.1,30.32,SE,144,1.0,4.0,63,0.00,,,0.00,Wunderground v.1.15,2014-02-08 03:08:00,
2014-02-07 21:13:00,14.4,4.4,30.32,SSE,148,1.0,2.0,64,0.00,,,0.00,Wunderground v.1.15,2014-02-08 03:13:00,
2014-02-07 21:19:00,14.4,4.8,30.32,SSE,149,2.0,5.0,65,0.00,,,0.00,Wunderground v.1.15,2014-02-08 03:19:00,
2014-02-07 21:25:00,14.4,5.1,30.32,SSE,156,3.0,4.0,66,0.00,,,0.00,Wunderground v.1.15,2014-02-08 03:25:00,
2014-02-07 21:30:00,14.4,5.4,30.31,SSE,156,2.0,2.0,67,0.00,,,0.00,Wunderground v.1.15,2014-02-08 03:30:00,
2014-02-07 21:36:00,14.3,5.3,30.31,SSE,156,2.0,4.0,67,0.00,,,0.00,Wunderground v.1.15,2014-02-08 03:36:00,
2014-02-07 21:42:00,14.3,5.7,30.31,South,169,2.0,3.0,68,0.00,,,0.00,Wunderground v.1.15,2014-02-08 03:42:00,
2014-02-07 21:47:00,14.3,6.0,30.31,SSE,166,2.0,6.0,69,0.00,,,0.00,Wunderground v.1.15,2014-02-08 03:47:00,
2014-02-07 21:52:00,14.3,6.0,30.31,SSE,163,2.0,3.0,69,0.00,,,0.00,Wunderground v.1.15,2014-02-08 03:52:00,
2014-02-07 21:57:00,14.3,6.0,30.31,SSE,163,2.0,3.0,69,0.00,,,0.00,Wunderground v.1.15,2014-02-08 03:57:00,
2014-02-07 22:02:00,14.3,6.3,30.30,SSE,157,2.0,3.0,70,0.00,,,0.00,Wunderground v.1.15,2014-02-08 04:02:00,
2014-02-07 22:07:00,14.3,6.3,30.30,SSE,153,2.0,4.0,70,0.00,,,0.00,Wunderground v.1.15,2014-02-08 04:07:00,
2014-02-07 22:13:00,14.3,6.3,30.30,SSE,154,2.0,3.0,70,0.00,,,0.00,Wunderground v.1.15,2014-02-08 04:13:00,
2014-02-07 22:19:00,14.3,6.6,30.30,SSE,154,2.0,4.0,71,0.00,,,0.00,Wunderground v.1.15,2014-02-08 04:19:00,
2014-02-07 22:24:00,14.3,6.6,30.30,SSE,155,2.0,4.0,71,0.00,,,0.00,Wunderground v.1.15,2014-02-08 04:24:00,
2014-02-07 22:29:00,14.3,6.6,30.30,SSE,154,2.0,4.0,71,0.00,,,0.00,Wunderground v.1.15,2014-02-08 04:29:00,
2014-02-07 22:34:00,14.3,6.9,30.29,SSE,155,1.0,3.0,72,0.00,,,0.00,Wunderground v.1.15,2014-02-08 04:34:00,
2014-02-07 22:40:00,14.3,6.9,30.29,SSE,155,1.0,1.0,72,0.00,,,0.00,Wunderground v.1.15,2014-02-08 04:40:00,
2014-02-07 22:46:00,14.3,6.9,30.28,SSE,155,1.0,2.0,72,0.00,,,0.00,Wunderground v.1.15,2014-02-08 04:46:00,
2014-02-07 22:52:00,14.3,6.9,30.28,SE,142,1.0,3.0,72,0.00,,,0.00,Wunderground v.1.15,2014-02-08 04:52:00,
2014-02-07 22:57:00,14.3,7.2,30.28,SSE,150,1.0,4.0,73,0.00,,,0.00,Wunderground v.1.15,2014-02-08 04:57:00,
2014-02-07 23:01:00,14.3,7.2,30.27,SSE,150,1.0,1.0,73,0.00,,,0.00,Wunderground v.1.15,2014-02-08 05:01:00,
2014-02-07 23:02:00,14.3,7.2,30.27,SSE,150,1.0,2.0,73,0.00,,,0.00,Wunderground v.1.15,2014-02-08 05:02:00,
2014-02-07 23:04:00,14.3,7.2,30.27,SSE,150,1.0,2.0,73,0.00,,,0.00,Wunderground v.1.15,2014-02-08 05:04:00,
2014-02-07 23:05:00,14.3,7.2,30.27,SSE,150,1.0,2.0,73,0.00,,,0.00,Wunderground v.1.15,2014-02-08 05:05:00,
2014-02-07 23:06:00,14.3,7.2,30.27,SSE,150,1.0,2.0,73,0.00,,,0.00,Wunderground v.1.15,2014-02-08 05:06:00,
2014-02-07 23:11:00,14.3,7.2,30.27,SSE,150,1.0,3.0,73,0.00,,,0.00,Wunderground v.1.15,2014-02-08 05:11:00,
2014-02-07 23:16:00,14.3,7.2,30.28,South,173,1.0,3.0,73,0.00,,,0.00,Wunderground v.1.15,2014-02-08 05:16:00,
2014-02-07 23:22:00,14.3,7.2,30.28,SSE,167,2.0,2.0,73,0.00,,,0.00,Wunderground v.1.15,2014-02-08 05:22:00,
2014-02-07 23:27:00,14.3,7.2,30.28,SSE,167,1.0,2.0,73,0.00,,,0.00,Wunderground v.1.15,2014-02-08 05:27:00,
2014-02-07 23:32:00,14.3,7.2,30.28,SSE,167,1.0,3.0,73,0.00,,,0.00,Wunderground v.1.15,2014-02-08 05:32:00,
2014-02-07 23:38:00,14.3,7.5,30.28,SSE,167,1.0,3.0,74,0.00,,,0.00,Wunderground v.1.15,2014-02-08 05:38:00,
2014-02-07 23:43:00,14.3,7.5,30.28,SSE,167,1.0,3.0,74,0.00,,,0.00,Wunderground v.1.15,2014-02-08 05:43:00,
2014-02-07 23:49:00,14.3,7.5,30.28,SSE,167,1.0,3.0,74,0.00,,,0.00,Wunderground v.1.15,2014-02-08 05:49:00,
2014-02-07 23:55:00,14.4,7.6,30.28,SSE,167,1.0,2.0,74,0.00,,,0.00,Wunderground v.1.15,2014-02-08 05:55:00,